This demonstration page uses our WeatherBlox Daily Observations layout. Learn more.

Left ArrowRight Arrow

34.74481, -87.66753

Hourly Observations for September 23, 2019

Temp ( °F °C ) Dew Point ( °F °C ) Humidity (%) Winds ( mph kmh ) Pressure ( in mb ) Visibility ( mi km ) Precip ( " mm )
12:53 am 00:53 Clear 67 19.4 61 16.1 81 81 Calm 30.06 1018 10 16 0.00 0.00
1:53 am 01:53 Clear 66 18.9 59 15 78 78 Calm 30.06 1018 10 16 0.00 0.00
2:53 am 02:53 Clear 66 18.9 61 16.1 84 84 Calm 30.05 1018 10 16 0.00 0.00
3:53 am 03:53 Clear 65 18.3 61 16.1 87 87 Calm 30.04 1017 10 16 0.00 0.00
5:53 am 05:53 Clear 64 17.8 60 15.6 87 87 Calm 30.06 1018 10 16 0.00 0.00
6:53 am 06:53 Mostly Sunny 64 17.8 60 15.6 87 87 Calm 30.07 1018 10 16 0.00 0.00
7:53 am 07:53 Cloudy 68 20 62 16.7 81 81 Calm 30.08 1019 10 16 0.00 0.00
8:53 am 08:53 Mostly Sunny 77 25 61 16.1 58 58 S 3 6 30.08 1019 10 16 0.00 0.00
9:53 am 09:53 Cloudy 82 27.8 65 18.3 56 56 WSW 9 15 30.08 1019 10 16 0.00 0.00
10:53 am 10:53 Partly Cloudy 88 31.1 66 18.9 48 48 W 9 15 30.07 1018 10 16 0.00 0.00
11:53 am 11:53 Cloudy 86 30 67 19.4 53 53 W 13 20 30.06 1018 10 16 0.00 0.00
12:53 pm 12:53 Cloudy 86 30 68 20 55 55 W 10 17 30.05 1018 10 16 0.00 0.00
1:53 pm 13:53 Cloudy 86 30 69 20.6 57 57 W 8 13 30.03 1017 10 16 0.00 0.00
2:53 pm 14:53 Mostly Sunny 90 32.2 70 21.1 52 52 NW 9 15 30.01 1016 10 16 0.00 0.00
3:53 pm 15:53 Mostly Cloudy 87 30.6 69 20.6 55 55 WNW 15 24 30.01 1016 10 16 0.00 0.00
4:53 pm 16:53 Cloudy 84 28.9 70 21.1 63 63 WSW 6 9 30.01 1016 10 16 0.00 0.00
5:53 pm 17:53 Cloudy 83 28.3 71 21.7 67 67 SW 7 11 30.00 1016 10 16 0.00 0.00
6:53 pm 18:53 Cloudy 81 27.2 70 21.1 69 69 W 8 13 30.00 1016 10 16 0.00 0.00
7:53 pm 19:53 Clear 79 26.1 70 21.1 74 74 WNW 5 7 29.99 1016 10 16 0.00 0.00
8:53 pm 20:53 Clear 78 25.6 71 21.7 79 79 Calm 29.99 1016 10 16 0.00 0.00
9:53 pm 21:53 Clear 76 24.4 71 21.7 85 85 NW 6 9 30.00 1016 10 16 0.00 0.00
10:53 pm 22:53 Clear 74 23.3 70 21.1 88 88 Calm 29.99 1016 10 16 0.00 0.00
11:53 pm 23:53 Clear 73 22.8 70 21.1 90 90 Calm 29.98 1015 10 16 0.00 0.00

Powered by AerisWeather